User: anonymous   Login
Location: Haliburton Scout Reserve
(45.0900°N, 78.3200°W)
Time: 08:35:02
(UTC-04:00)
Language:

TIGRISAT - Orbit

View from above orbital plane
View from above orbital plane
View from above satellite
View from above satellite

Ground track
Ground track

The orbit data is extracted from the following two-line orbital elements,

1 40043U 14033AK  24205.94182993  .00005925  00000-0  78436-3 0  9992
2 40043  97.6992   7.0942 0055077 182.5397 177.5544 14.79207518542891
Epoch (UTC): 23 July 2024 22:36:14
Eccentricity: 0.0055077
inclination: 97.6992°
perigee height: 593 km
apogee height: 670 km
right ascension of ascending node: 7.0942°
argument of perigee: 182.5397°
revolutions per day: 14.79207518
mean anomaly at epoch: 177.5544°
orbit number at epoch: 54289

The dashed part of the orbit path shows where the satellite is in the earth's shadow,  

DLR